Previsão horária em Alins

Hoje, 25 Junho, Sexta-feira

Tempo Temperatura Precipitação Vento Pressão Humidade
00:00 +10°C° 0 mm 1 m/s 644 mmHg 77%
01:00 +9°C° 0 mm 1 m/s 644 mmHg 78%
02:00 +9°C° 0 mm 1 m/s 643 mmHg 79%
03:00 +9°C° 0 mm 1 m/s 643 mmHg 80%
04:00 +10°C° 0 mm 1 m/s 643 mmHg 78%
05:00 +11°C° 0 mm 1 m/s 644 mmHg 76%
06:00 +11°C° 0 mm 0 m/s 644 mmHg 74%
07:00 +13°C° 0 mm 1 m/s 644 mmHg 67%
08:00 +15°C° 0 mm 1 m/s 645 mmHg 60%
09:00 +17°C° 0 mm 2 m/s 645 mmHg 53%
10:00 +18°C° 0 mm 2 m/s 645 mmHg 49%
11:00 +19°C° 0 mm 2 m/s 646 mmHg 45%
12:00 +20°C° 0 mm 2 m/s 646 mmHg 42%
13:00 +21°C° 0 mm 2 m/s 645 mmHg 41%
14:00 +21°C° 0 mm 3 m/s 645 mmHg 40%
15:00 +21°C° 0 mm 3 m/s 645 mmHg 39%
16:00 +21°C° 0 mm 2 m/s 645 mmHg 42%
17:00 +20°C° 0 mm 2 m/s 644 mmHg 46%
18:00 +20°C° 0 mm 1 m/s 644 mmHg 49%
19:00 +18°C° 0 mm 1 m/s 644 mmHg 54%
20:00 +15°C° 0 mm 1 m/s 643 mmHg 58%
21:00 +13°C° 0 mm 1 m/s 643 mmHg 63%
22:00 +13°C° 0 mm 1 m/s 643 mmHg 64%
23:00 +13°C° 0 mm 1 m/s 643 mmHg 64%

Amanhã, 26 Junho, Sábado

Tempo Temperatura Precipitação Vento Pressão Humidade
00:00 +13°C° 0 mm 1 m/s 643 mmHg 65%
01:00 +12°C° 0 mm 1 m/s 643 mmHg 68%
02:00 +12°C° 0 mm 1 m/s 642 mmHg 70%
03:00 +12°C° 0 mm 1 m/s 642 mmHg 73%
04:00 +13°C° 0 mm 1 m/s 642 mmHg 71%
05:00 +14°C° 0 mm 1 m/s 643 mmHg 70%
06:00 +15°C° 0 mm 1 m/s 643 mmHg 68%
07:00 +18°C° 0.1 mm 1 m/s 643 mmHg 63%
08:00 +18°C° 0.1 mm 2 m/s 643 mmHg 59%
09:00 +20°C° 0.1 mm 2 m/s 644 mmHg 54%
10:00 +21°C° 0.2 mm 2 m/s 644 mmHg 51%
11:00 +21°C° 0.2 mm 3 m/s 644 mmHg 49%
12:00 +22°C° 0.2 mm 3 m/s 644 mmHg 47%
13:00 +22°C° 0.2 mm 3 m/s 644 mmHg 48%
14:00 +23°C° 0.2 mm 2 m/s 643 mmHg 49%
15:00 +23°C° 0.2 mm 2 m/s 643 mmHg 49%
16:00 +21°C° 0.5 mm 2 m/s 642 mmHg 54%
17:00 +20°C° 0.5 mm 2 m/s 642 mmHg 59%
18:00 +19°C° 0.5 mm 3 m/s 641 mmHg 64%
19:00 +18°C° 2.4 mm 2 m/s 641 mmHg 70%
20:00 +16°C° 2.4 mm 2 m/s 641 mmHg 77%
21:00 +15°C° 2.4 mm 2 m/s 641 mmHg 83%
22:00 +14°C° 0.1 mm 2 m/s 641 mmHg 85%
23:00 +14°C° 0.1 mm 1 m/s 641 mmHg 86%

Depois de amanhã, 27 Junho, Domingo

Tempo Temperatura Precipitação Vento Pressão Humidade
00:00 +13°C° 0.1 mm 1 m/s 641 mmHg 87%
01:00 +13°C° 0.1 mm 2 m/s 640 mmHg 86%
02:00 +13°C° 0.1 mm 2 m/s 640 mmHg 86%
03:00 +13°C° 0.1 mm 2 m/s 640 mmHg 86%
04:00 +13°C° 0 mm 2 m/s 640 mmHg 83%
05:00 +14°C° 0 mm 2 m/s 640 mmHg 81%
06:00 +14°C° 0 mm 1 m/s 640 mmHg 79%
07:00 +16°C° 0 mm 2 m/s 640 mmHg 70%
08:00 +17°C° 0 mm 2 m/s 641 mmHg 62%
09:00 +19°C° 0 mm 3 m/s 641 mmHg 53%
10:00 +20°C° 0 mm 3 m/s 641 mmHg 50%
11:00 +21°C° 0 mm 4 m/s 641 mmHg 46%
12:00 +22°C° 0 mm 4 m/s 642 mmHg 43%
13:00 +22°C° 0.3 mm 4 m/s 641 mmHg 45%
14:00 +22°C° 0.3 mm 4 m/s 641 mmHg 48%
15:00 +22°C° 0.3 mm 4 m/s 641 mmHg 51%
16:00 +21°C° 0.5 mm 3 m/s 640 mmHg 55%
17:00 +19°C° 0.5 mm 3 m/s 640 mmHg 60%
18:00 +18°C° 0.5 mm 3 m/s 640 mmHg 65%
19:00 +17°C° 0.6 mm 2 m/s 640 mmHg 72%
20:00 +15°C° 0.6 mm 2 m/s 640 mmHg 78%
21:00 +13°C° 0.6 mm 1 m/s 639 mmHg 84%
22:00 +13°C° 0.3 mm 1 m/s 639 mmHg 86%
23:00 +12°C° 0.3 mm 1 m/s 639 mmHg 88%

28 Junho, Segunda-feira

Tempo Temperatura Precipitação Vento Pressão Humidade
00:00 +12°C° 0.3 mm 1 m/s 639 mmHg 89%
01:00 +12°C° 0.5 mm 1 m/s 639 mmHg 90%
02:00 +12°C° 0.5 mm 1 m/s 639 mmHg 91%
03:00 +11°C° 0.5 mm 1 m/s 639 mmHg 91%
04:00 +12°C° 0.2 mm 1 m/s 639 mmHg 90%
05:00 +12°C° 0.2 mm 1 m/s 639 mmHg 89%
06:00 +12°C° 0.2 mm 1 m/s 639 mmHg 88%
07:00 +14°C° 0.1 mm 1 m/s 640 mmHg 82%
08:00 +15°C° 0.1 mm 2 m/s 640 mmHg 75%
09:00 +16°C° 0.1 mm 2 m/s 641 mmHg 69%
10:00 +17°C° 0 mm 3 m/s 641 mmHg 60%
11:00 +18°C° 0 mm 3 m/s 641 mmHg 51%
12:00 +19°C° 0 mm 3 m/s 642 mmHg 43%
13:00 +19°C° 0 mm 3 m/s 642 mmHg 41%
14:00 +19°C° 0 mm 3 m/s 642 mmHg 39%
15:00 +20°C° 0 mm 3 m/s 642 mmHg 37%
16:00 +19°C° 0 mm 3 m/s 642 mmHg 42%
17:00 +18°C° 0 mm 3 m/s 641 mmHg 46%
18:00 +17°C° 0 mm 2 m/s 641 mmHg 50%
19:00 +15°C° 0 mm 2 m/s 641 mmHg 57%
20:00 +13°C° 0 mm 2 m/s 641 mmHg 65%
21:00 +11°C° 0 mm 1 m/s 641 mmHg 72%
22:00 +11°C° 0 mm 1 m/s 641 mmHg 73%
23:00 +11°C° 0 mm 1 m/s 641 mmHg 74%

29 Junho, Terça-feira

Tempo Temperatura Precipitação Vento Pressão Humidade
00:00 +10°C° 0 mm 1 m/s 641 mmHg 75%
01:00 +10°C° 0 mm 1 m/s 641 mmHg 76%
02:00 +9°C° 0 mm 1 m/s 640 mmHg 77%
03:00 +9°C° 0 mm 1 m/s 640 mmHg 78%
04:00 +10°C° 0 mm 1 m/s 641 mmHg 75%
05:00 +11°C° 0 mm 1 m/s 641 mmHg 73%
06:00 +11°C° 0 mm 0 m/s 641 mmHg 71%
07:00 +13°C° 0 mm 1 m/s 642 mmHg 64%
08:00 +15°C° 0 mm 1 m/s 642 mmHg 57%
09:00 +17°C° 0 mm 2 m/s 643 mmHg 50%
10:00 +17°C° 0 mm 2 m/s 643 mmHg 47%
11:00 +18°C° 0 mm 2 m/s 643 mmHg 45%
12:00 +19°C° 0 mm 3 m/s 644 mmHg 42%
13:00 +20°C° 0 mm 3 m/s 643 mmHg 41%
14:00 +20°C° 0 mm 3 m/s 643 mmHg 41%
15:00 +20°C° 0 mm 3 m/s 643 mmHg 40%
16:00 +19°C° 0 mm 3 m/s 643 mmHg 44%
17:00 +19°C° 0 mm 2 m/s 643 mmHg 48%
18:00 +18°C° 0 mm 2 m/s 643 mmHg 52%
19:00 +16°C° 0 mm 2 m/s 643 mmHg 60%
20:00 +14°C° 0 mm 2 m/s 642 mmHg 67%
21:00 +12°C° 0 mm 2 m/s 642 mmHg 74%
22:00 +10°C° 0 mm 2 m/s 642 mmHg 75%
23:00 +11°C° 0 mm 1 m/s 642 mmHg 76%

30 Junho, Quarta-feira

Tempo Temperatura Precipitação Vento Pressão Humidade
00:00 +10°C° 0 mm 1 m/s 642 mmHg 77%
01:00 +10°C° 0 mm 1 m/s 642 mmHg 77%
02:00 +10°C° 0 mm 1 m/s 641 mmHg 78%
03:00 +10°C° 0 mm 1 m/s 641 mmHg 78%
04:00 +11°C° 0 mm 1 m/s 642 mmHg 79%
05:00 +10°C° 0 mm 0 m/s 642 mmHg 79%
06:00 +10°C° 0 mm 0 m/s 642 mmHg 79%
07:00 +13°C° 0 mm 1 m/s 642 mmHg 72%
08:00 +15°C° 0 mm 1 m/s 643 mmHg 65%
09:00 +16°C° 0 mm 1 m/s 643 mmHg 59%
10:00 +17°C° 0.1 mm 2 m/s 643 mmHg 55%
11:00 +18°C° 0.1 mm 2 m/s 643 mmHg 50%
12:00 +19°C° 0.1 mm 3 m/s 643 mmHg 46%
13:00 +19°C° 0.2 mm 3 m/s 643 mmHg 46%
14:00 +19°C° 0.2 mm 3 m/s 643 mmHg 46%
15:00 +20°C° 0.2 mm 2 m/s 643 mmHg 46%
16:00 +19°C° 0 mm 3 m/s 643 mmHg 51%
17:00 +18°C° 0 mm 3 m/s 643 mmHg 55%
18:00 +17°C° 0 mm 3 m/s 643 mmHg 60%
19:00 +14°C° 0 mm 3 m/s 643 mmHg 67%
20:00 +12°C° 0 mm 3 m/s 643 mmHg 74%
21:00 +10°C° 0 mm 3 m/s 643 mmHg 82%
22:00 +10°C° 0 mm 3 m/s 643 mmHg 82%
23:00 +9°C° 0 mm 2 m/s 643 mmHg 82%
Mostrar mais